Regional Weather Roundup
Issued by NWS

Home | Current Version | Previous Version | Graphics & Text | Print | Product List | Glossary On
Versions: 1 2 3 4 5 6 7 8 9 10 11 12 13 14 15 16 17 18 19 20 21 22 23 24 25 26 27 28 29 30 31 32 33 34 35 36 37 38 39 40 41 42 43 44 45 46 47 48 49 50
202
ASUS43 KLOT 232008
RWRIL

ILLINOIS REGIONAL WEATHER ROUNDUP
NATIONAL WEATHER SERVICE CHICAGO/ROMEOVILLE IL
300 PM CDT TUE AUG 23 2016

NOTE: "FAIR" INDICATES FEW OR NO CLOUDS BELOW 12,000 FEET WITH NO
SIGNIFICANT WEATHER AND/OR OBSTRUCTIONS TO VISIBILITY.

* THESE STATIONS ARE NOT UNDER NWS QUALITY CONTROL. THEY ALSO MAY NOT
  REPORT WEATHER SUCH AS PRECIPITATION OR FOG.

ILZ001-002-007-009-015-016-024-232100-
NORTHWEST ILLINOIS

CITY           SKY/WX    TMP DP  RH WIND       PRES   REMARKS
MOLINE         PTSUNNY   80  66  62 S14       30.09F HX  82
STERLING*      PTSUNNY   79  64  60 VRB5      30.12F HX  81
SAVANNA*       PTSUNNY   82  64  54 S16       30.09F HX  83
$$

ILZ003-004-008-010-011-017-018-232100-
NORTH CENTRAL ILLINOIS

CITY           SKY/WX    TMP DP  RH WIND       PRES   REMARKS
ROCKFORD       MOSUNNY   81  62  52 S18       30.14F HX  82
FREEPORT*      MOSUNNY   78  62  57 S13G21    30.14S HX  80
ROCHELLE*      MOSUNNY   78  64  60 S12G20    30.14F HX  80
DE KALB*         N/A    N/A N/A N/A MISG        N/A
$$

ILZ005-006-012>014-019>023-232100-
NORTHEAST ILLINOIS

CITY           SKY/WX    TMP DP  RH WIND       PRES   REMARKS
CHICAGO-OHARE  MOSUNNY   79  60  52 S18       30.14F HX  80
CHICAGO-MIDWAY PTSUNNY   82  59  45 S16       30.15F HX  82
AURORA         MOSUNNY   80  61  52 S16       30.15F HX  81
LANSING*       PTSUNNY   79  61  53 S15       30.17F HX  80
JOLIET*        PTSUNNY   82  64  53 S9        30.16F HX  84
WAUKEGAN       MOSUNNY   82  60  47 S16       30.13F HX  82
DUPAGE AIRPORT MOSUNNY   80  59  48 S14       30.15F HX  81
KANKAKEE*      MOSUNNY   80  62  54 S9G17     30.18F HX  81
WHEELING       MOSUNNY   81  58  45 S16       30.15F HX  81
MORRIS*        MOSUNNY   80  62  54 S8        30.14F HX  81
ROMEOVILLE*    MOSUNNY   79  60  51 S9        30.16F HX  80
NORTHERLY ISL    N/A     80  58  46 S13         N/A  HX  80
$$

LMZ740>746-232100-
SOUTHERN LAKE MICHIGAN

STATION/POSITION SKY/WX   TEMP    WIND        PRES    VSBY  WAVE
                          AIR SEA DIR/SP/G                  HT/PER
                          (F)     (DEG/KT/KT) (MB)    (MI)  (FT/S)
SOUTHERN BUOY              74 75  170/ 16/ 17 1020.7F         3/ 5
WILMETTE HARBOR            74 72  180/ 12/ 16   N/A           2/ 3
HARRISON CRIB              76     180/ 15/ 16   N/A
BURNHAM HARBOR             80     190/  8/ 17   N/A
CALUMET HARBOR             78     170/ 15/ 20 1021.2F
BURNS HARBOR               78     190/ 14/ 20 1022.4F
MICHIGAN CITY              76     190/ 13/ 17   N/A
MICHIGAN CITY 6N           76 73  200/ 10/ 16   N/A           1/ 2
ST. JOSEPH                 76 75  180/ 10/ 14 1021.6F         1/ 3
$$

ILZ025>027-034>036-040-047-049-050-058-095>099-232100-
WEST-CENTRAL ILLINOIS

CITY           SKY/WX    TMP DP  RH WIND       PRES   REMARKS
QUINCY         CLOUDY    76  70  82 SE13      30.10F
GALESBURG*     CLOUDY    80  67  65 S10G22    30.11F HX  82
MACOMB*        CLOUDY    75  67  74 S15G23    30.13F
JACKSONVILLE*  CLOUDY    73  67  80 S13G20    30.15S
PITTSFIELD*    CLOUDY    73  69  86 SE9       30.14F
$$

ILZ028>032-037-038-041>044-048-051>054-059>061-232100-
CENTRAL ILLINOIS

CITY           SKY/WX    TMP DP  RH WIND       PRES   REMARKS
PONTIAC        MOSUNNY   80  66  61 S13G18    30.17S HX  82
BLOOMINGTON    PTSUNNY   79  65  62 S16       30.17F HX  81
DECATUR        CLOUDY    79  64  60 S13       30.18F HX  81
PEORIA         PTSUNNY   80  66  62 S17       30.13F HX  82
LACON*         CLOUDY    79  63  58 S10G16    30.13S HX  80
LINCOLN*       PTSUNNY   81  67  62 S13       30.15F HX  84
SPRINGFIELD    CLOUDY    77  65  66 S15G22    30.16F
TAYLORVILLE    CLOUDY    76  65  68 S14       30.18F
$$

ILZ033-039-045-046-055>057-062-063-232100-
EAST-CENTRAL ILLINOIS

CITY           SKY/WX    TMP DP  RH WIND       PRES   REMARKS
CHAMPAIGN      CLOUDY    77  64  64 S12       30.19F
RANTOUL*       MOSUNNY   80  64  57 S8G17     30.19F HX  82
MATTOON        MOSUNNY   78  63  59 S13       30.18F HX  80
PARIS*         MOSUNNY   80  66  62 S5        30.20F HX  81
$$

ILZ079-100>102-232100-
SOUTHWEST ILLINOIS

CITY           SKY/WX    TMP DP  RH WIND       PRES   REMARKS
ALTON          CLOUDY    72  66  83 SE9       30.16
BELLEVILLE     CLOUDY    77  68  73 SE6       30.14F
CAHOKIA*       CLOUDY    77  68  73 S9        30.15F
SPARTA*        CLOUDY    75  69  81 SE5       30.18F
$$

ILZ064>066-069>071-074>076-080>082-084>086-088>090-092>094-232100-
SOUTH-CENTRAL ILLINOIS

CITY           SKY/WX    TMP DP  RH WIND       PRES   REMARKS
CARBONDALE     CLOUDY    76  66  71 SE7       30.18F
CAIRO*         LGT RAIN  77  74  90 S8        30.18F
EFFINGHAM*     CLOUDY    79  66  64 SE8       30.21F HX  81
MARION         CLOUDY    79  68  69 SE9       30.20F HX  81
MT. VERNON     CLOUDY    79  64  61 S7        30.20F HX  81
CENTRALIA*     DRIZZLE   74  69  84 CALM      30.19F
SALEM*         CLOUDY    78  67  67 S7        30.19F HX  80
$$

ILZ067-068-072-073-078-083-087-091-232100-
SOUTHEAST ILLINOIS

CITY           SKY/WX    TMP DP  RH WIND       PRES   REMARKS
LAWRENCEVILLE  SUNNY     82  62  50 S9        30.20F HX  83
FLORA*         MOSUNNY   82  66  58 S9        30.20F HX  83
FAIRFIELD*     CLOUDY    78  66  66 SE3       30.19F HX  80
HARRISBURG*    CLOUDY    75  68  79 SE3       30.20F
ROBINSON*      MOSUNNY   80  64  58 S10       30.21F HX  81
CARMI*         CLOUDY    79  67  65 SW7       30.20F HX  81
$$

ABBREVIATIONS USED IN REMARKS
   TC - TEMPERATURE IN CELSIUS
  WCI - WIND CHILL INDEX
   HX - HEAT INDEX
  VSB - VISIBILITY
$$





USA.gov is the U.S. government's official web portal to all federal, state and local government web resources and services.